Probability
0 0 0 0 0 0 0 0 0 0 0 0 0 0 0 0 0 0 0 0 3 3 3 3 6 6 10 10 6 3 3 10 3 3 6 6 3 6 3 3 3 3 3
0 0 0 0 0 0 0 0 0 0 0 0 0 0 0 0 0 0 0 0 0 3 6 3 3 10 10 10 3 3 3 3 0 3 3 3 6 6 6 3 3 0 0
0 0 0 0 0 0 0 0 0 0 0 0 0 0 0 0 0 0 0 0 0 0 3 3 3 6 6 10 3 3 3 3 0 0 3 3 3 3 6 3 3 0 0
0 0 0 0 0 0 0 0 0 0 0 0 0 0 0 0 0 0 0 0 0 0 0 0 3 3 6 10 6 3 3 3 3 0 0 3 3 0 3 6 3 0 0
0 0 0 0 0 0 0 0 0 0 0 0 0 0 0 0 0 0 0 0 0 0 0 0 0 0 0 3 3 3 3 6 0 0 0 0 0 3 3 3 0 0 0
0 0 0 0 0 0 0 0 0 0 0 0 0 0 0 0 0 0 0 0 0 0 0 0 0 0 0 0 3 3 3 3 6 3 0 0 0 3 6 3 0 0 0
0 0 0 0 0 0 0 0 0 0 0 0 0 0 0 0 0 0 0 0 0 0 0 0 0 0 0 0 0 0 0 3 6 3 3 0 0 0 3 0 0 0 0
0 0 0 0 0 0 0 0 0 0 0 0 0 0 0 0 0 0 0 0 0 0 0 0 0 0 0 0 0 0 0 3 3 3 3 0 0 0 3 0 0 0 0
0 0 0 0 0 0 0 0 0 0 0 0 0 0 0 0 0 0 0 0 0 0 0 0 0 0 0 0 0 0 0 0 0 6 6 0 0 0 0 0 0 0 0
0 0 0 0 0 0 0 0 0 0 0 0 0 0 0 0 0 0 0 0 0 0 0 0 0 0 0 0 0 0 0 0 0 6 3 0 0 0 0 0 0 0 0
0 0 0 0 0 0 0 0 0 0 0 0 0 0 0 0 0 0 0 0 0 0 0 0 0 0 0 0 0 0 0 0 0 3 3 3 0 0 0 0 0 0 0
0 0 0 0 0 0 0 0 0 0 0 0 0 0 0 0 0 0 0 0 0 0 0 0 0 0 0 0 0 0 0 0 0 3 3 0 0 0 0 0 0 0 0
0 0 0 0 0 0 0 0 0 0 0 0 0 0 0 0 0 0 0 0 0 0 0 0 0 0 0 0 0 0 0 0 0 0 0 0 0 0 0 0 0 0 0
0 0 0 0 0 0 0 0 0 0 0 0 0 0 0 0 0 0 0 0 0 0 0 0 0 0 0 0 0 0 0 0 0 0 0 0 0 0 0 0 0 0 0
0 0 0 0 0 0 0 0 0 0 0 0 0 0 0 0 0 0 0 0 0 0 0 0 0 0 0 0 0 0 0 0 0 0 0 0 0 0 0 0 0 0 0
0 0 0 0 0 0 0 0 0 0 0 0 0 0 0 0 0 0 0 0 0 0 0 0 0 0 0 0 0 0 0 0 0 0 0 0 0 0 0 0 0 0 0
0 0 0 0 0 0 0 0 0 0 0 0 0 0 0 0 0 0 0 0 0 0 0 0 0 0 0 0 0 0 0 0 0 0 0 0 0 0 0 0 0 0 0
0 0 0 0 0 0 0 0 0 0 0 0 0 0 0 0 0 0 0 0 0 0 0 0 0 0 0 0 0 0 0 0 0 0 0 0 0 0 0 0 0 0 0
0 0 0 0 0 0 0 0 0 0 0 0 0 0 0 0 0 0 0 0 0 0 0 0 0 0 0 0 0 0 0 0 0 0 0 0 0 0 0 0 0 0 0
0 0 0 0 0 0 0 0 0 0 0 0 0 0 0 0 0 0 0 0 0 0 0 0 0 0 0 0 0 0 0 0 0 0 0 0 0 0 0 0 0 0 0
0 0 0 0 0 0 0 0 0 0 0 0 0 0 0 0 0 0 0 0 0 0 0 0 0 0 0 0 0 0 0 0 0 0 0 0 0 0 0 0 0 0 0
0 0 0 0 0 0 0 0 0 0 0 0 0 0 0 0 0 0 0 0 0 0 0 0 0 0 0 0 0 0 0 0 0 0 0 0 0 0 0 0 0 0 0
0 0 0 0 0 0 0 0 0 0 0 0 0 0 0 0 0 0 0 0 0 0 0 0 0 0 0 0 0 0 0 0 0 0 0 0 0 0 0 0 0 0 0
0 0 0 0 0 0 0 0 0 0 0 0 0 0 0 0 0 0 0 0 0 0 0 0 0 0 0 0 0 0 0 0 0 0 0 0 0 0 0 0 0 0 0
0 0 0 0 0 0 0 0 0 0 0 0 0 0 0 0 0 0 0 0 0 0 0 0 0 0 0 0 0 0 0 0 0 0 0 0 0 0 0 0 0 0 0
0 0 0 0 0 0 0 0 0 0 0 0 0 0 0 0 0 0 0 0 0 0 0 0 0 0 0 0 0 0 0 0 0 0 0 0 0 0 0 0 0 0 0
Height
5778 5778 5778 5779 5779 5780 5780 5781 5781 5782 5783 5783 5783 5784 5785 5785 5786 5787 5788 5789 5790 5791 5792 5793 5794 5795 5797 5798 5799 5800 5802 5803 5804 5806 5807 5808 5809 5810 5812 5813 5814 5815 5817
5770 5770 5771 5771 5771 5772 5772 5773 5773 5774 5774 5775 5775 5776 5776 5777 5778 5778 5779 5780 5781 5782 5784 5785 5786 5787 5788 5790 5791 5793 5794 5796 5797 5799 5800 5802 5803 5804 5805 5807 5809 5810 5811
5762 5762 5762 5762 5763 5763 5763 5764 5764 5765 5765 5766 5766 5766 5767 5767 5768 5769 5770 5771 5772 5773 5774 5775 5777 5778 5779 5781 5782 5784 5786 5787 5789 5791 5792 5794 5796 5797 5799 5800 5802 5803 5805
5752 5752 5753 5753 5753 5753 5753 5754 5755 5755 5755 5756 5756 5756 5756 5757 5758 5758 5759 5760 5761 5762 5764 5765 5766 5767 5769 5771 5773 5775 5776 5778 5780 5782 5784 5786 5788 5789 5791 5793 5794 5796 5797
5742 5742 5742 5743 5743 5743 5743 5743 5744 5744 5744 5744 5745 5745 5745 5746 5746 5747 5748 5748 5749 5751 5752 5753 5754 5756 5758 5760 5761 5763 5766 5768 5770 5773 5775 5777 5779 5781 5783 5785 5787 5789 5790
5731 5731 5732 5732 5731 5732 5732 5732 5732 5732 5732 5732 5732 5733 5733 5733 5733 5734 5735 5736 5737 5737 5738 5740 5741 5743 5745 5747 5749 5751 5754 5757 5759 5762 5764 5767 5769 5772 5774 5776 5778 5780 5782
5720 5720 5720 5720 5720 5720 5719 5719 5719 5719 5719 5719 5719 5720 5720 5720 5721 5721 5721 5722 5723 5724 5724 5726 5727 5729 5731 5734 5736 5739 5741 5744 5747 5750 5753 5756 5759 5761 5764 5767 5769 5771 5774
5708 5707 5707 5707 5706 5706 5706 5706 5706 5705 5705 5705 5705 5705 5706 5708 5707 5707 5707 5708 5708 5709 5709 5710 5712 5714 5717 5719 5722 5725 5728 5731 5734 5738 5741 5745 5748 5751 5754 5756 5759 5762 5764
5695 5694 5693 5693 5693 5692 5692 5692 5691 5691 5691 5690 5689 5690 5690 5692 5693 5694 5693 5692 5693 5693 5694 5696 5697 5699 5701 5704 5707 5711 5714 5718 5721 5725 5728 5732 5736 5740 5742 5745 5749 5752 5754
5681 5680 5679 5679 5679 5678 5678 5677 5677 5676 5676 5676 5675 5674 5674 5674 5675 5678 5678 5677 5677 5678 5679 5680 5682 5684 5686 5689 5692 5695 5699 5703 5707 5711 5715 5719 5723 5728 5731 5734 5738 5741 5744
5666 5666 5665 5664 5664 5663 5663 5662 5662 5661 5661 5660 5660 5659 5659 5658 5657 5658 5661 5662 5662 5663 5663 5665 5667 5669 5671 5674 5677 5680 5684 5688 5692 5696 5701 5705 5710 5715 5719 5722 5726 5730 5733
5653 5651 5650 5649 5649 5648 5647 5647 5646 5645 5645 5644 5643 5643 5642 5642 5641 5641 5643 5645 5647 5648 5649 5651 5653 5655 5657 5659 5662 5664 5668 5672 5677 5681 5686 5691 5695 5700 5705 5709 5713 5717 5721
5639 5638 5636 5635 5634 5633 5632 5631 5630 5630 5628 5628 5627 5626 5625 5624 5624 5624 5625 5628 5630 5632 5634 5636 5638 5640 5642 5644 5647 5649 5653 5656 5660 5665 5670 5675 5680 5685 5690 5695 5699 5704 5708
5625 5624 5623 5621 5620 5618 5617 5616 5615 5614 5612 5611 5610 5609 5608 5607 5608 5608 5609 5610 5613 5616 5618 5620 5622 5624 5627 5629 5631 5634 5637 5640 5644 5648 5653 5658 5663 5668 5674 5679 5684 5689 5694
5612 5611 5609 5607 5605 5604 5602 5601 5600 5599 5597 5596 5595 5593 5592 5592 5592 5592 5593 5594 5597 5600 5604 5605 5607 5609 5610 5613 5615 5618 5620 5624 5627 5631 5636 5641 5647 5652 5658 5663 5669 5674 5679
5599 5597 5595 5593 5591 5590 5588 5587 5586 5584 5583 5581 5579 5578 5577 5577 5577 5577 5578 5579 5580 5583 5587 5590 5591 5593 5594 5596 5598 5601 5604 5606 5609 5614 5619 5625 5630 5636 5641 5647 5653 5659 5665
5585 5583 5581 5579 5578 5576 5574 5573 5571 5570 5568 5566 5564 5563 5562 5562 5562 5562 5562 5563 5564 5566 5569 5574 5575 5576 5577 5580 5582 5584 5587 5590 5593 5598 5603 5608 5614 5620 5626 5631 5637 5643 5649
5572 5569 5567 5565 5564 5562 5560 5559 5557 5555 5553 5551 5550 5548 5547 5547 5547 5547 5548 5548 5549 5550 5552 5556 5559 5560 5561 5563 5565 5568 5571 5574 5578 5582 5587 5593 5598 5604 5610 5616 5621 5628 5634
5558 5556 5554 5552 5550 5548 5546 5544 5542 5541 5539 5537 5535 5534 5533 5532 5532 5532 5533 5533 5534 5535 5536 5539 5542 5544 5546 5547 5549 5552 5556 5559 5563 5567 5572 5577 5583 5589 5594 5600 5606 5612 5619
5544 5542 5540 5537 5535 5533 5531 5529 5527 5526 5524 5522 5521 5519 5518 5517 5517 5517 5518 5519 5519 5520 5521 5523 5526 5528 5530 5532 5534 5537 5541 5544 5549 5553 5558 5563 5569 5574 5580 5586 5593 5598 5603
5530 5528 5526 5523 5521 5519 5517 5514 5512 5511 5509 5508 5506 5505 5504 5503 5503 5503 5503 5504 5504 5505 5506 5508 5511 5513 5515 5517 5520 5523 5526 5531 5535 5540 5544 5550 5555 5561 5566 5572 5577 5583 5588
5516 5514 5512 5509 5507 5504 5502 5499 5497 5496 5494 5493 5491 5490 5489 5488 5488 5488 5488 5489 5489 5490 5492 5494 5496 5499 5502 5504 5507 5510 5513 5518 5523 5528 5531 5536 5541 5547 5552 5558 5563 5568 5573
5502 5500 5497 5495 5493 5490 5487 5485 5482 5480 5479 5478 5476 5476 5475 5474 5474 5474 5474 5475 5476 5477 5478 5480 5482 5485 5488 5491 5494 5497 5500 5504 5510 5514 5518 5523 5528 5533 5538 5543 5548 5554 5559
5488 5486 5483 5481 5479 5476 5473 5471 5468 5467 5465 5463 5462 5461 5460 5460 5459 5460 5461 5462 5463 5464 5465 5467 5470 5472 5474 5477 5480 5484 5487 5492 5497 5501 5505 5510 5515 5520 5525 5529 5534 5539 5545
5475 5472 5470 5468 5465 5463 5460 5457 5455 5453 5451 5450 5448 5447 5446 5446 5446 5446 5447 5449 5450 5451 5452 5454 5456 5459 5462 5465 5468 5471 5475 5479 5484 5489 5493 5497 5502 5507 5512 5516 5521 5526 5531
5461 5459 5457 5454 5452 5450 5447 5444 5441 5440 5438 5437 5435 5434 5433 5432 5432 5432 5434 5435 5437 5439 5440 5442 5444 5446 5449 5452 5456 5459 5463 5467 5471 5477 5481 5485 5489 5494 5499 5504 5508 5513 5518
Wind_Speed
31 31 31 31 31 31 31 31 31 31 32 32 32 32 32 33 33 33 34 34 34 34 34 34 34 33 33 32 31 32 31 30 30 30 29 29 29 29 28 26 25 25 24
33 34 33 34 34 34 34 34 33 33 34 34 34 35 35 36 36 36 36 36 36 36 36 36 36 36 36 36 35 35 35 34 33 32 32 31 31 31 30 30 29 27 25
35 36 35 36 36 37 36 36 36 36 36 37 37 37 38 38 39 39 39 39 39 39 39 39 39 39 38 38 38 37 37 36 35 34 34 33 33 32 32 32 31 30 29
39 39 38 38 38 38 39 39 39 39 39 40 41 41 41 41 41 41 41 42 42 41 41 41 41 42 41 41 41 40 39 39 38 38 37 36 34 34 34 34 33 32 31
42 41 42 42 41 41 41 41 42 43 43 43 43 44 44 44 43 43 44 44 44 43 44 44 44 44 45 44 44 44 43 42 41 40 39 38 37 36 36 35 35 34 33
44 44 44 44 44 44 45 45 45 45 45 45 46 46 46 46 45 46 46 47 47 47 47 47 46 46 46 46 46 47 46 46 44 43 42 41 40 39 37 37 36 36 36
46 46 46 47 47 48 48 47 48 48 48 48 48 48 47 47 48 48 48 49 49 50 50 50 49 49 48 48 48 48 49 48 46 46 45 43 42 41 40 39 38 38 38
48 48 49 49 49 49 49 49 50 50 50 50 50 50 49 48 49 49 49 50 50 51 51 51 50 50 50 50 50 50 50 49 49 48 47 46 44 43 43 42 41 39 39
50 50 50 50 51 51 50 50 51 51 51 50 51 52 51 51 50 50 52 52 51 52 52 51 51 51 52 51 50 51 51 51 50 50 49 48 47 45 45 44 43 41 40
52 52 52 52 52 52 52 52 52 52 52 51 52 52 53 53 53 53 52 52 52 52 53 53 52 51 52 52 52 52 52 52 52 51 51 50 49 47 47 46 45 43 42
51 52 52 53 52 52 52 52 53 53 53 53 53 53 54 55 55 54 53 52 51 51 52 52 52 51 52 52 53 53 53 53 53 53 53 52 51 50 49 48 47 45 44
51 51 51 52 51 52 52 53 53 54 54 54 55 55 55 55 55 55 54 53 53 52 52 52 52 51 52 52 52 53 53 54 55 55 55 54 54 52 51 49 49 48 47
51 51 51 51 51 52 53 53 54 54 54 54 55 56 56 56 55 54 54 53 53 53 52 52 53 53 53 53 53 53 53 54 55 56 56 56 55 54 52 51 51 50 49
50 51 51 51 51 52 53 53 53 53 53 54 54 55 56 56 55 54 53 53 53 53 53 53 53 53 53 54 54 54 54 54 55 55 56 55 55 54 53 53 52 52 51
50 50 51 51 51 51 51 50 51 51 53 53 54 55 55 55 54 54 54 54 54 54 53 53 53 53 54 54 54 54 54 54 55 55 56 56 56 56 56 55 53 53 52
50 51 51 51 51 50 50 50 50 51 52 52 53 53 53 53 53 53 53 53 54 54 53 53 53 53 54 53 54 55 54 54 54 55 55 55 56 56 55 56 56 55 54
50 50 50 50 50 49 49 50 50 51 51 51 52 52 52 52 52 52 52 53 53 53 53 53 54 54 54 54 53 53 54 54 53 54 54 54 55 55 56 56 55 55 54
49 49 50 50 49 50 50 51 51 51 50 50 50 51 51 51 51 51 51 52 52 53 53 52 53 53 53 53 52 52 53 54 54 53 53 55 54 54 55 56 56 55 54
48 48 49 50 50 50 51 51 51 51 51 50 50 50 50 50 49 50 51 51 51 52 52 51 51 52 52 52 52 51 52 53 53 53 53 54 54 54 55 55 55 55 54
48 49 49 50 50 51 51 52 52 52 51 51 50 50 50 50 49 49 50 50 51 51 51 51 50 50 50 50 50 51 50 51 51 51 52 52 52 53 53 55 55 54 54
49 49 49 49 50 51 51 51 51 51 51 50 50 50 50 50 49 48 49 50 50 50 49 49 48 48 48 47 47 48 48 48 48 49 50 51 52 52 53 53 54 55 54
48 48 49 49 49 50 50 50 50 50 50 50 49 48 49 48 48 48 48 48 47 47 46 46 46 46 46 46 45 46 47 47 47 47 48 49 51 52 53 54 54 54 54
48 47 48 48 47 48 48 48 48 48 49 48 47 47 47 47 47 46 46 46 45 45 45 44 45 44 45 45 45 45 45 45 45 46 48 48 50 51 53 54 54 54 54
46 46 46 46 46 46 46 46 47 47 46 46 46 46 46 46 46 45 45 45 45 45 44 43 43 43 43 43 44 45 44 44 45 46 47 47 48 49 50 51 53 53 54
46 45 45 44 45 45 45 45 46 46 45 45 45 44 43 44 44 44 43 43 44 43 43 43 43 42 42 43 44 44 43 43 43 44 45 46 46 47 48 49 50 51 52
45 44 44 44 45 44 45 45 45 45 44 43 43 42 42 42 42 42 42 42 42 42 41 41 42 42 42 43 43 43 43 42 43 43 44 44 45 46 46 46 48 49 50
Wind_Direction
272 271 271 270 270 270 269 269 269 268 268 268 268 268 267 267 265 264 264 263 262 261 260 259 260 261 260 259 259 259 260 261 262 260 259 260 259 258 257 258 256 256 256
272 272 272 271 271 271 270 270 270 269 269 269 269 269 268 268 267 266 265 264 263 262 261 260 260 261 260 259 259 260 260 260 260 261 260 259 259 259 257 257 256 255 255
272 272 273 273 272 271 271 271 270 270 269 269 269 270 270 268 267 266 265 264 263 262 262 261 261 260 260 260 259 259 258 258 258 258 259 259 258 258 258 257 257 256 254
273 272 273 273 273 272 271 271 271 271 271 270 269 270 270 268 267 266 265 264 263 263 263 261 261 259 259 259 259 257 256 257 258 257 257 258 258 257 257 256 257 257 257
273 273 273 273 272 272 272 273 273 272 272 272 270 270 270 269 267 266 266 265 264 263 262 262 260 259 259 259 258 257 256 256 256 256 256 257 258 257 256 256 256 256 256
273 273 273 273 273 273 273 274 274 273 273 272 271 271 270 269 268 266 265 265 264 263 263 262 261 259 259 259 258 257 256 256 255 254 254 255 255 256 256 255 255 255 255
274 274 274 274 274 275 274 274 274 274 274 273 272 271 271 270 269 268 266 265 264 264 263 262 261 260 259 258 258 256 255 254 253 253 253 254 254 254 254 255 255 254 254
275 274 275 275 275 275 275 275 275 275 274 273 272 271 271 270 270 269 267 266 264 264 263 262 261 260 259 257 256 255 254 253 253 253 252 252 252 253 254 254 254 253 254
274 275 275 275 275 275 275 275 275 275 274 274 273 273 272 270 270 270 269 267 265 263 263 261 260 259 258 257 256 254 253 253 252 251 251 251 251 252 253 253 253 253 253
276 276 276 276 275 275 275 275 276 276 275 274 274 273 273 272 271 270 268 266 265 263 262 261 260 259 258 257 256 255 253 252 251 250 250 250 250 250 251 252 251 251 251
277 277 277 277 275 275 275 275 275 275 274 274 274 273 273 273 272 271 267 265 264 262 261 260 259 258 257 257 257 255 253 252 251 250 250 249 249 248 250 250 250 249 249
278 277 278 277 276 276 276 275 275 275 274 274 274 274 273 272 271 270 268 265 263 261 260 260 259 258 257 258 258 256 254 252 251 251 250 249 248 247 248 249 249 249 249
279 278 278 278 277 277 277 277 276 275 274 274 274 274 273 272 271 270 268 265 263 261 260 260 259 258 257 257 257 257 255 253 252 251 250 248 246 246 246 246 247 248 249
280 279 279 280 280 279 278 277 275 275 275 275 274 274 273 272 270 269 268 266 263 261 261 260 259 258 257 257 256 257 256 254 252 251 249 248 245 244 245 246 245 247 248
281 280 279 280 280 279 278 277 276 276 275 276 276 275 273 272 270 269 268 266 264 262 261 261 261 259 258 257 256 256 256 254 253 250 248 247 246 245 244 245 245 245 246
281 280 280 280 280 280 278 277 277 277 277 277 276 275 274 272 270 269 268 266 266 265 262 261 261 260 259 258 257 257 256 254 252 249 247 246 246 245 244 243 243 244 245
282 281 280 280 280 280 279 278 278 279 279 278 278 276 274 272 271 269 268 268 267 265 263 262 262 262 261 259 258 257 254 253 251 248 246 245 245 245 244 243 242 243 245
283 282 281 281 280 280 280 280 279 279 279 279 278 276 274 272 271 269 268 268 268 266 265 264 262 261 261 260 257 256 254 252 250 248 246 245 245 244 243 242 242 241 243
283 283 282 281 281 281 281 281 281 281 280 279 278 276 274 272 271 269 268 268 268 267 266 265 264 261 260 259 257 255 253 251 249 247 246 245 245 244 243 242 241 241 242
283 283 282 281 281 281 281 281 281 281 281 279 278 276 275 273 270 269 268 269 268 267 266 265 264 261 259 259 257 254 251 249 247 246 246 245 245 243 243 241 241 241 241
283 283 282 282 282 282 282 282 282 281 280 279 277 276 274 273 270 270 269 269 268 267 266 264 262 260 258 257 255 253 250 248 248 248 246 245 244 243 242 242 241 241 241
284 283 283 283 283 283 283 283 282 281 280 279 277 276 274 273 271 270 269 268 267 266 265 263 261 260 257 255 253 251 249 250 249 248 246 245 245 244 243 243 242 242 242
284 284 283 283 282 282 283 283 283 283 281 279 277 275 273 271 270 269 267 266 265 266 265 263 261 259 256 253 251 249 249 250 248 247 245 244 244 244 244 244 243 243 243
284 284 283 282 283 283 283 284 284 284 282 280 278 276 273 270 269 267 265 264 264 264 263 261 260 258 254 251 251 249 249 247 246 246 247 246 245 244 245 245 244 243 243
284 284 283 283 284 284 284 284 283 284 283 281 279 277 274 271 269 267 265 264 262 262 261 260 259 256 252 251 250 249 248 246 245 246 246 247 245 244 245 245 244 244 243
284 283 283 284 285 285 285 284 284 284 283 281 279 276 273 270 267 267 266 265 263 260 259 258 256 255 252 250 250 248 246 246 245 244 244 246 245 244 244 244 244 244 244